GW6407 Weather Reports


time (UTC)temp
C
wind
direction
speed
KPH
gust
KPH
rain 1hr
cm
rain 24hr
cm
rain mn
cm
humidity
%
barometer
mb
20260906161508 25 191 3.2 11.3 0.00 0.00 0.00 59 1021.7
20260906160021 25 170 4.8 11.3 0.00 0.00 0.00 57 1021.9
20260906154516 24 305 1.6 9.7 0.00 0.00 0.00 58 1021.8
20260906153027 23 237 1.6 9.7 0.00 0.00 0.00 59 1022.0
20260906151530 23 193 3.2 9.7 0.00 0.00 0.00 60 1022.0
20260906150009 22 211 0.0 8.0 0.00 0.00 0.00 64 1021.8
20260906144517 22 226 3.2 9.7 0.00 0.00 0.00 68 1021.7
20260906143023 21 176 4.8 11.3 0.00 0.00 0.00 72 1021.7
20260906141530 20 252 3.2 11.3 0.00 0.00 0.00 78 1021.7
20260906140038 19 146 3.2 9.7 0.00 0.00 0.00 84 1021.9
20260906134515 18 176 3.2 8.0 0.00 0.00 0.00 92 1022.1
20260906133018 17 162 1.6 3.2 0.00 0.00 0.00 96 1022.3
20260906131527 16 172 1.6 6.4 0.00 0.00 0.00 96 1022.2
20260906130030 15 179 1.6 3.2 0.00 0.00 0.00 95 1022.2
20260906124529 15 158 0.0 3.2 0.00 0.00 0.00 95 1022.1
20260906123029 15 158 0.0 3.2 0.00 0.00 0.00 94 1022.0
20260906121536 15 158 0.0 0.0 0.00 0.00 0.00 94 1021.6
20260906120006 15 158 0.0 3.2 0.00 0.00 0.00 94 1021.4
20260906114510 15 158 0.0 0.0 0.00 0.00 0.00 93 1021.4
20260906113035 15 158 0.0 3.2 0.00 0.00 0.00 93 1021.4
20260906111522 15 158 0.0 0.0 0.00 0.00 0.00 93 1021.1
20260906110004 16 158 0.0 3.2 0.00 0.00 0.00 93 1020.9
20260906104510 16 158 0.0 3.2 0.00 0.00 0.00 93 1020.6
20260906103013 16 158 0.0 1.6 0.00 0.00 0.00 93 1020.7
20260906101517 16 158 0.0 3.2 0.00 0.00 0.00 93 1021.0
20260906100026 17 158 0.0 3.2 0.00 0.00 0.00 93 1020.9
20260906094507 17 158 0.0 3.2 0.00 0.00 0.00 93 1020.7
20260906093011 17 158 0.0 3.2 0.00 0.00 0.00 93 1020.6
20260906091527 17 172 0.0 3.2 0.00 0.00 0.00 93 1020.6
20260906090028 17 181 0.0 0.0 0.00 0.00 0.00 92 1020.7
20260906084505 17 181 0.0 0.0 0.00 0.00 0.00 92 1020.7
20260906083013 17 181 0.0 0.0 0.00 0.00 0.00 92 1020.7
20260906081518 17 181 0.0 0.0 0.00 0.00 0.00 92 1020.7
20260906080020 17 181 0.0 0.0 0.00 0.00 0.00 91 1020.6
20260906074527 18 181 0.0 3.2 0.00 0.00 0.00 90 1020.5
20260906073006 18 146 0.0 3.2 0.00 0.00 0.00 90 1020.6
20260906071508 18 146 0.0 3.2 0.00 0.00 0.00 90 1020.8
20260906070015 18 226 0.0 6.4 0.00 0.00 0.00 91 1021.0
20260906064523 18 212 0.0 3.2 0.00 0.00 0.00 91 1020.9
20260906063028 18 195 0.0 3.2 0.00 0.00 0.00 91 1020.8
20260906061509 18 188 3.2 6.4 0.00 0.00 0.00 90 1020.5
20260906060024 18 164 3.2 8.0 0.00 0.00 0.00 90 1020.5
20260906054523 18 173 3.2 8.0 0.00 0.00 0.00 90 1020.4
20260906053032 18 186 3.2 11.3 0.00 0.00 0.00 90 1020.4
20260906051530 18 187 3.2 8.0 0.00 0.00 0.00 91 1020.4
20260906050029 18 176 0.0 4.8 0.00 0.00 0.00 90 1020.5
20260906044531 18 161 3.2 6.4 0.00 0.00 0.00 91 1020.3
20260906043024 17 150 1.6 8.0 0.00 0.00 0.00 91 1020.1
20260906041531 17 174 3.2 6.4 0.00 0.00 0.00 92 1019.9
20260906040034 17 144 1.6 3.2 0.00 0.00 0.00 90 1019.5
20260906034516 17 163 0.0 3.2 0.00 0.00 0.00 89 1019.5
20260906033036 17 81 0.0 3.2 0.00 0.00 0.00 89 1019.3
20260906031504 17 33 0.0 3.2 0.00 0.00 0.00 89 1019.2
20260906030010 17 33 0.0 3.2 0.00 0.00 0.00 88 1019.1
20260906024514 17 33 0.0 3.2 0.00 0.00 0.00 86 1018.8
20260906023019 17 33 0.0 0.0 0.00 0.00 0.00 86 1018.5
20260906021505 18 33 0.0 1.6 0.00 0.00 0.00 85 1018.7
20260906020005 18 9 0.0 3.2 0.00 0.00 0.00 84 1018.7
20260906014509 19 9 0.0 0.0 0.00 0.00 0.00 83 1018.8
20260906013014 20 9 0.0 3.2 0.00 0.00 0.00 81 1018.7
20260906011533 21 9 0.0 3.2 0.00 0.00 0.00 78 1018.5
20260906010003 21 9 0.0 3.2 0.00 0.00 0.00 77 1018.4
20260906004508 22 3 0.0 3.2 0.00 0.00 0.00 74 1018.4
20260906003012 23 359 1.6 8.0 0.00 0.00 0.00 72 1018.3
20260906001516 23 18 1.6 4.8 0.00 0.00 0.00 71 1018.1
20260906000025 23 24 0.0 11.3 0.00 0.00 0.00 72 1017.9
20260905234506 23 19 0.0 6.4 0.00 0.00 0.00 73 1017.7
20260905233007 24 19 0.0 3.2 0.00 0.00 0.00 71 1017.9
20260905231514 25 359 1.6 3.2 0.00 0.00 0.00 68 1017.9
20260905230028 26 357 3.2 6.4 0.00 0.00 0.00 64 1017.9
20260905224533 26 37 0.0 4.8 0.00 0.00 0.00 61 1017.9
20260905223010 27 46 0.0 3.2 0.00 0.00 0.00 60 1017.8
20260905221517 27 43 0.0 1.6 0.00 0.00 0.00 55 1017.8
20260905220021 28 318 0.0 4.8 0.00 0.00 0.00 54 1017.9
20260905214525 28 349 3.2 4.8 0.00 0.00 0.00 53 1018.1
20260905213005 28 310 1.6 4.8 0.00 0.00 0.00 52 1018.1
20260905211512 28 288 0.0 6.4 0.00 0.00 0.00 53 1018.1
20260905210018 27 169 1.6 4.8 0.00 0.00 0.00 54 1018.4
20260905204522 27 317 1.6 4.8 0.00 0.00 0.00 55 1018.5
20260905203031 28 1 1.6 9.7 0.00 0.00 0.00 55 1018.5
20260905201510 28 356 1.6 4.8 0.00 0.00 0.00 53 1018.4
20260905200017 27 330 4.8 9.7 0.00 0.00 0.00 55 1018.4
20260905194523 27 229 1.6 4.8 0.00 0.00 0.00 61 1018.5
20260905193029 26 254 1.6 8.0 0.00 0.00 0.00 60 1018.6
20260905191528 25 186 1.6 6.4 0.00 0.00 0.00 64 1018.8
20260905190014 25 333 0.0 3.2 0.00 0.00 0.00 67 1018.9
20260905184520 25 326 1.6 4.8 0.00 0.00 0.00 66 1018.9
20260905183024 25 16 3.2 4.8 0.00 0.00 0.00 66 1018.7
20260905181507 25 330 1.6 4.8 0.00 0.00 0.00 66 1019.1
20260905180013 25 359 0.0 6.4 0.00 0.00 0.00 68 1019.2
20260905174518 24 302 1.6 4.8 0.00 0.00 0.00 70 1019.3
20260905173003 24 217 4.8 8.0 0.00 0.00 0.00 71 1019.4
20260905171505 23 356 1.6 6.4 0.00 0.00 0.00 71 1019.5
20260905170011 23 329 3.2 4.8 0.00 0.00 0.00 74 1019.6
20260905164513 23 101 1.6 6.4 0.00 0.00 0.00 72 1019.9
20260905163018 24 134 1.6 8.0 0.00 0.00 0.00 70 1020.0